Retour au catalogue

USA 40 R/B DEB

ActifUNKNOWN
NORAD 23351·DEBRIS·🇺🇸 United States

Lancé Aug 8, 1989 depuis Cape Canaveral Space Force Station

Loading…

Prochains Passages (prochaines 24 heures)

TLE

FraisSource: Space-Track

Époque: Sep 13, 2026, 12:46 UTC

1 23351U 89061X   26256.53245538  .00005632  00000-0  29400-2 0  9997
2 23351  56.9617 162.9828 2167994 313.1153  30.7186 10.52672428276794

Suivez USA 40 R/B DEB en temps réel avec AllMySat

Download on the App Store